Location: Beuvrequen
(50.8014°N, 1.6652°E)
Time: 19:35:53
(UTC+00:00)

ATLAS 3B R/B - Pass Details

Date: 16 October 2021
Orbit: 989 x 1206 km, 63.8° (Epoch: 25 November)

Event Time Altitude Azimuth Distance (km) Brightness Sun altitude
Rises 22:10:21 0° 296° (WNW) 3,816 6.2 -44.6°
Reaches altitude 10° 22:13:23 10° 307° (NW) 2,896 5.5 -44.9°
Enters shadow 22:17:21 25° 340° (NNW) 2,031 4.5 -45.2°
